This demonstration page uses our WeatherBlox Daily Observations layout. Learn more.

Left ArrowRight Arrow

34.16533, -84.80231

Hourly Observations for August 7, 2018

Temp ( °F °C ) Dew Point ( °F °C ) Humidity (%) Winds ( mph kmh ) Pressure ( in mb ) Visibility ( mi km ) Precip ( " mm )
12:53 am 00:53 Clear 73 22.8 73 22.8 100 100 Calm 30.08 1019 10 16 0.00 0.00
1:53 am 01:53 Clear 73 22.8 73 22.8 100 100 Calm 30.07 1018 10 16 0.00 0.00
2:53 am 02:53 Clear 73 22.8 73 22.8 100 100 Calm 30.06 1018 9 14 0.00 0.00
3:53 am 03:53 Clear 72 22.2 72 22.2 100 100 Calm 30.06 1018 9 14 0.00 0.00
4:53 am 04:53 Clear 72 22.2 72 22.2 100 100 Calm 30.06 1018 9 14 0.00 0.00
5:53 am 05:53 Clear 72 22.2 72 22.2 100 100 Calm 30.07 1018 8 13 0.00 0.00
6:53 am 06:53 Clear 73 22.8 73 22.8 100 100 Calm 30.08 1019 9 14 0.00 0.00
7:53 am 07:53 Sunny 74 23.3 74 23.3 100 100 Calm 30.09 1019 9 14 0.00 0.00
8:53 am 08:53 Sunny 77 25 75 23.9 94 94 Calm 30.11 1020 10 16 0.00 0.00
9:53 am 09:53 Sunny 80 26.7 76 24.4 87 87 Calm 30.11 1020 10 16 0.00 0.00
10:53 am 10:53 Sunny 81 27.2 76 24.4 85 85 Calm 30.12 1020 10 16 0.00 0.00
11:53 am 11:53 Sunny 84 28.9 76 24.4 77 77 Calm 30.12 1020 10 16 0.00 0.00
12:53 pm 12:53 Sunny 89 31.7 70 21.1 53 53 Calm 30.09 1019 10 16 0.00 0.00
1:53 pm 13:53 Sunny 90 32.2 71 21.7 54 54 Calm 30.07 1018 10 16 0.00 0.00
2:53 pm 14:53 Sunny 90 32.2 69 20.6 50 50 VRB 3 6 30.04 1017 10 16 0.00 0.00
3:53 pm 15:53 Sunny 92 33.3 68 20 46 46 NNW 6 9 30.02 1017 10 16 0.00 0.00
4:53 pm 16:53 Sunny 92 33.3 70 21.1 49 49 N 5 7 30.00 1016 10 16 0.00 0.00
5:53 pm 17:53 Sunny 92 33.3 71 21.7 51 51 Calm 30.00 1016 10 16 0.00 0.00
6:53 pm 18:53 Sunny 89 31.7 71 21.7 55 55 Calm 30.00 1016 10 16 0.00 0.00
7:53 pm 19:53 Sunny 81 27.2 74 23.3 79 79 SSE 8 13 30.01 1016 10 16 0.00 0.00
8:53 pm 20:53 Clear 79 26.1 74 23.3 85 85 Calm 30.02 1017 10 16 0.00 0.00
9:53 pm 21:53 Clear 76 24.4 74 23.3 94 94 S 3 6 30.04 1017 10 16 0.00 0.00
10:53 pm 22:53 Clear 76 24.4 74 23.3 94 94 Calm 30.05 1018 10 16 0.00 0.00
11:53 pm 23:53 Clear 76 24.4 73 22.8 91 91 Calm 30.06 1018 10 16 0.00 0.00

Powered by AerisWeather